Cook, MN

2:27 PM CDT on October 17, 2017 (GMT -0500)
Cook Municipal

Weather History for KCQM - April, 2014

Change the Weather History Date:

Thursday, April 3, 2014

  Actual Average Record
Temperature  
Mean Temperature 30 °F -  
Max Temperature 37 °F 42 °F 86 °F (1999)
Min Temperature 24 °F 22 °F 0 °F (2013)
Degree Days  
Heating Degree Days 34    
Moisture  
Dew Point 15 °F    
Average Humidity 54    
Maximum Humidity 86    
Minimum Humidity 30    
Precipitation  
Precipitation 0.00 in - - ()
Sea Level Pressure  
Sea Level Pressure 30.07 in    
Wind  
Wind Speed 3 mph (East)    
Max Wind Speed 9 mph    
Max Gust Speed 16 mph    
Visibility 10 miles    
Events Snow    
Averages and records for this station are not official NWS values.
T = Trace of Precipitation, MM = Missing Value Source: NWS Daily Summary

Daily Weather History Graph

Daily Weather History Graph

Search for Another Location

Airport or City:

Trip Planner

Search our weather history database for the weather conditions in past years. The results will help you decide how hot, cold, wet, or windy it might be!

Date:

Astronomy

Apr. 03, 2014 Rise Set
Actual Time 6:45 AM CDT 7:43 PM CDT
Civil Twilight 6:13 AM CDT 8:15 PM CDT
Nautical Twilight 5:36 AM CDT 8:53 PM CDT
Astronomical Twilight 4:56 AM CDT 9:33 PM CDT
Moon 9:00 AM CDT (4/3) No Moon Set
Length of Visible Light 14h 01m
Length of Day
12h 58m
Waxing Crescent, 17% of the Moon is Illuminated
Apr 3
Waxing Crescent
Apr 7
First Quarter
Apr 15
Full
Apr 22
Last Quarter
Apr 29
New

Hourly Weather History & Observations

Time (CDT) Temp. Windchill Dew Point Humidity Pressure Visibility Wind Dir Wind Speed Gust Speed Precip Events Conditions
12:15 AM 28.4 °F - 17.6 °F 64% 30.16 in 10.0 mi Calm Calm - N/A   Clear
12:34 AM 26.6 °F - 17.6 °F 69% 30.17 in 10.0 mi Calm Calm - N/A   Clear
12:55 AM 26.6 °F - 17.6 °F 69% 30.16 in 10.0 mi Calm Calm - N/A   Clear
1:15 AM 26.6 °F - 17.6 °F 69% 30.17 in 10.0 mi Calm Calm - N/A   Clear
1:34 AM 26.6 °F - 17.6 °F 69% 30.17 in 10.0 mi Calm Calm - N/A   Clear
1:55 AM 26.6 °F - 17.6 °F 69% 30.17 in 10.0 mi Calm Calm - N/A   Clear
2:15 AM 26.6 °F - 17.6 °F 69% 30.17 in 10.0 mi Calm Calm - N/A   Scattered Clouds
2:34 AM 24.8 °F - 17.6 °F 74% 30.17 in 10.0 mi Calm Calm - N/A   Mostly Cloudy
2:55 AM 26.6 °F - 17.6 °F 69% 30.16 in 10.0 mi Calm Calm - N/A   Overcast
3:15 AM 26.6 °F 22.6 °F 17.6 °F 69% 30.15 in 10.0 mi ENE 3.5 mph - N/A   Mostly Cloudy
3:34 AM 24.8 °F 19.1 °F 17.6 °F 74% 30.13 in 10.0 mi ENE 4.6 mph - N/A   Mostly Cloudy
3:55 AM 24.8 °F - 17.6 °F 74% 30.14 in 10.0 mi Calm Calm - N/A   Overcast
4:14 AM 24.8 °F - 17.6 °F 74% 30.13 in 10.0 mi Calm Calm - N/A   Overcast
4:35 AM 24.8 °F 19.1 °F 17.6 °F 74% 30.11 in 10.0 mi ENE 4.6 mph - N/A   Overcast
4:55 AM 24.8 °F - 15.8 °F 69% 30.11 in 10.0 mi Calm Calm - N/A   Overcast
5:14 AM 24.8 °F 20.5 °F 15.8 °F 69% 30.12 in 10.0 mi East 3.5 mph - N/A   Overcast
5:35 AM 26.6 °F - 15.8 °F 64% 30.11 in 10.0 mi Calm Calm - N/A   Overcast
5:54 AM 24.8 °F 20.5 °F 15.8 °F 69% 30.11 in 10.0 mi ENE 3.5 mph - N/A   Overcast
6:15 AM 26.6 °F 21.2 °F 15.8 °F 64% 30.11 in 10.0 mi East 4.6 mph - N/A   Overcast
6:35 AM 26.6 °F 22.6 °F 15.8 °F 64% 30.11 in 10.0 mi East 3.5 mph - N/A   Overcast
6:54 AM 26.6 °F 21.2 °F 14.0 °F 59% 30.11 in 10.0 mi East 4.6 mph - N/A   Overcast
7:15 AM 26.6 °F 21.2 °F 14.0 °F 59% 30.12 in 10.0 mi East 4.6 mph - N/A   Overcast
7:35 AM 26.6 °F 19.1 °F 14.0 °F 59% 30.12 in 10.0 mi East 6.9 mph - N/A   Overcast
7:54 AM 28.4 °F 22.2 °F 14.0 °F 55% 30.11 in 10.0 mi East 5.8 mph - N/A   Overcast
8:15 AM 28.4 °F 21.2 °F 12.2 °F 51% 30.11 in 10.0 mi East 6.9 mph - N/A   Mostly Cloudy
8:35 AM 28.4 °F 19.7 °F 12.2 °F 51% 30.11 in 10.0 mi ESE 9.2 mph - N/A   Mostly Cloudy
8:54 AM 28.4 °F 20.4 °F 12.2 °F 51% 30.11 in 10.0 mi East 8.1 mph - N/A   Mostly Cloudy
9:15 AM 30.2 °F 25.4 °F 10.4 °F 44% 30.11 in 10.0 mi ESE 4.6 mph - N/A   Overcast
9:35 AM 30.2 °F 24.3 °F 10.4 °F 44% 30.11 in 10.0 mi East 5.8 mph - N/A   Overcast
9:54 AM 30.2 °F 25.4 °F 10.4 °F 44% 30.10 in 10.0 mi East 4.6 mph - N/A   Mostly Cloudy
10:15 AM 32.0 °F 24.8 °F 8.6 °F 38% 30.09 in 10.0 mi East 8.1 mph - N/A   Scattered Clouds
10:35 AM 33.8 °F 26.4 °F 8.6 °F 35% 30.09 in 10.0 mi East 9.2 mph - N/A   Scattered Clouds
10:54 AM 33.8 °F 27.0 °F 8.6 °F 35% 30.08 in 10.0 mi East 8.1 mph - N/A   Scattered Clouds
11:15 AM 33.8 °F 28.6 °F 8.6 °F 35% 30.08 in 10.0 mi East 5.8 mph - N/A   Scattered Clouds
11:35 AM 33.8 °F 29.6 °F 8.6 °F 35% 30.08 in 10.0 mi East 4.6 mph - N/A   Mostly Cloudy
11:54 AM 35.6 °F 30.7 °F 8.6 °F 33% 30.07 in 10.0 mi ENE 5.8 mph - N/A   Mostly Cloudy
12:15 PM 35.6 °F 30.7 °F 10.4 °F 35% 30.07 in 10.0 mi NE 5.8 mph - N/A   Mostly Cloudy
12:34 PM 35.6 °F 30.7 °F 10.4 °F 35% 30.07 in 10.0 mi East 5.8 mph - N/A   Overcast
12:55 PM 35.6 °F 28.6 °F 10.4 °F 35% 30.06 in 10.0 mi East 9.2 mph - N/A   Overcast
1:15 PM 35.6 °F 29.2 °F 10.4 °F 35% 30.06 in 10.0 mi East 8.1 mph - N/A   Mostly Cloudy
1:34 PM 35.6 °F 29.2 °F 10.4 °F 35% 30.05 in 10.0 mi East 8.1 mph - N/A   Scattered Clouds
1:55 PM 35.6 °F 29.2 °F 10.4 °F 35% 30.05 in 10.0 mi East 8.1 mph - N/A   Scattered Clouds
2:15 PM 37.4 °F 32.8 °F 10.4 °F 33% 30.05 in 10.0 mi ESE 5.8 mph - N/A   Scattered Clouds
2:34 PM 37.4 °F 32.8 °F 8.6 °F 30% 30.04 in 10.0 mi East 5.8 mph - N/A   Scattered Clouds
2:55 PM 37.4 °F 32.1 °F 10.4 °F 33% 30.03 in 10.0 mi ENE 6.9 mph - N/A   Clear
3:15 PM 37.4 °F 30.8 °F 8.6 °F 30% 30.03 in 10.0 mi East 9.2 mph - N/A   Scattered Clouds
3:34 PM 37.4 °F 30.8 °F 8.6 °F 30% 30.02 in 10.0 mi ESE 9.2 mph - N/A   Mostly Cloudy
3:55 PM 37.4 °F 32.8 °F 10.4 °F 33% 30.02 in 10.0 mi ESE 5.8 mph - N/A   Scattered Clouds
4:15 PM 37.4 °F 31.4 °F 15.8 °F 41% 30.01 in 10.0 mi East 8.1 mph - N/A   Mostly Cloudy
4:34 PM 35.6 °F 30.7 °F 19.4 °F 52% 30.01 in 10.0 mi ESE 5.8 mph - N/A   Overcast
4:55 PM 33.8 °F 27.0 °F 23.0 °F 65% 30.00 in 4.0 mi East 8.1 mph - N/A Snow Light Snow
5:14 PM 35.6 °F 29.9 °F 19.4 °F 52% 30.00 in 10.0 mi ENE 6.9 mph - N/A   Overcast
5:35 PM 35.6 °F 29.9 °F 19.4 °F 52% 29.98 in 10.0 mi East 6.9 mph - N/A   Overcast
5:54 PM 35.6 °F 28.6 °F 15.8 °F 44% 29.98 in 10.0 mi ENE 9.2 mph - N/A   Overcast
6:15 PM 35.6 °F 29.2 °F 10.4 °F 35% 29.98 in 10.0 mi East 8.1 mph 16.1 mph N/A   Overcast
6:35 PM 35.6 °F 28.6 °F 12.2 °F 38% 29.98 in 10.0 mi East 9.2 mph - N/A   Mostly Cloudy
6:54 PM 33.8 °F 27.7 °F 12.2 °F 41% 29.98 in 10.0 mi East 6.9 mph - N/A   Overcast
7:15 PM 33.8 °F 27.0 °F 12.2 °F 41% 29.97 in 10.0 mi East 8.1 mph - N/A   Overcast
7:35 PM 33.8 °F 27.0 °F 15.8 °F 48% 29.97 in 10.0 mi SE 8.1 mph - N/A   Overcast
7:55 PM 33.8 °F 28.6 °F 17.6 °F 52% 29.98 in 10.0 mi SE 5.8 mph - N/A   Overcast
8:14 PM 32.0 °F 28.7 °F 19.4 °F 60% 29.98 in 10.0 mi East 3.5 mph - N/A   Overcast
8:35 PM 32.0 °F - 19.4 °F 60% 29.98 in 10.0 mi Calm Calm - N/A   Overcast
8:55 PM 30.2 °F - 19.4 °F 64% 29.98 in 10.0 mi Calm Calm - N/A   Overcast
9:14 PM 30.2 °F - 19.4 °F 64% 29.99 in 10.0 mi Calm Calm - N/A   Overcast
9:35 PM 30.2 °F 24.3 °F 21.2 °F 69% 29.99 in 10.0 mi SE 5.8 mph - N/A   Overcast
10:54 PM 26.6 °F 22.6 °F 23.0 °F 86% 29.96 in 3.0 mi ENE 3.5 mph - N/A Snow Light Snow
11:15 PM 26.6 °F 19.1 °F 23.0 °F 86% 29.96 in 4.0 mi ENE 6.9 mph - N/A Snow Light Snow
11:35 PM 26.6 °F 18.2 °F 23.0 °F 86% 29.95 in 5.0 mi East 8.1 mph - N/A Snow Light Snow
11:54 PM 26.6 °F 21.2 °F 21.2 °F 80% 29.95 in 7.0 mi ENE 4.6 mph - N/A Snow Light Snow